STARLINK F (44240 NORAD) Tracking and Keplerian Element Data

This shows tracking and keplerian element data for the satellite.

Feedback or suggestion? Click here.




ElementValue
Catalog44240
NameSTARLINK F
Epoch Orbit469
Epoch Day174.12976797
Epoch Year2019
RAAN35.8557
Inclination53.0059
Eccentricity0.000281
Argument of Perigee140.8335
Mean Anonmoly219.286
Mean Motion15.11438926
Decay Rate-0.00449636
L11 44240U 19029F 19174.12976797 -.00449636 00000-0 -27960-1 0 9994
L22 44240 53.0059 35.8557 0002810 140.8335 219.2860 15.11438926 4693

Live tracking and technical data element details for STARLINK F (NORAD 44240). STARLINK F can be tracked NOW for your location showing map with azimuth and elevation plus other details from your city location.

Track the satellite on the map from your city or location and see movement details for azimuth, elevation, latitude, longitude, range, height, and movement on the map or in text.







IsCatalogInMostPopularTable: catalog: 44240, numindb: 29
Update: records affected: 1



GetName: 44240 STARLINK F

Hit Count: updated at: Mon, 15 Jul 2019 22:20:09 GMT